Tracking 30157 objects as of 13-Feb-2025
HD Live streaming from Space Station
objects crossing your sky now

ONEWEB-0311

Track ONEWEB-0311 now!
10-day predictions
ONEWEB-0311 is classified as:


NORAD ID: 49097
Int'l Code: 2021-075Y
Perigee: 1,199.7 km
Apogee: 1,202.0 km
Inclination: 87.9 °
Period: 109.3 minutes
Semi major axis: 7571 km
RCS: Unknown
Launch date: August 21, 2021
Source: United Kingdom (UK)
Launch site: TYURATAM MISSILE AND SPACE COMPLEX (TTMTR)
Your satellite tracking list
Your tracking list is empty




NASA's NSSDC Master Catalog

Two Line Element Set (TLE):
1 49097U 21075Y   25043.61123748  .00000096  00000-0  21343-3 0  9991
2 49097  87.9054 103.4007 0001540  94.4223 265.7084 13.17648792169155
Source of the keplerian elements: AFSPC